ALSAT 1B

Last updated on Mon Oct 14 2024 00:02:25 GMT+0000 (Coordinated Universal Time)

1 41785U 16059C 24287.54320142 .00001720 00000+0 28592-3 0 9998 2 41785 97.8112 311.1847 0010385 38.5722 321.6226 14.71305481430603
UTC large
Height (km)
Speed (km/s)
/
Latitude / Longitude
Inclination (degrees)
Orbital Period (minutes)
Azimuth
Elevation
Range (km)
Doppler Factor

Next 0 passes for location: London (51.5072 / 0.1276)

Sorry there are no passes over London.